| time (UTC) | temp F | wind direction | speed knots | gust knots | rain 1hr in | rain 24hr in | rain mn in | humidity % | barometer mb |
| 20260506231547 | 60 | 179 | 0.0 | 2.6 | 0.00 | 0.23 | 0.23 | 92 | 1009.8 |
| 20260506230048 | 60 | 315 | 0.9 | 2.6 | 0.00 | 0.23 | 0.23 | 93 | 1009.8 |
| 20260506224545 | 60 | 182 | 0.9 | 5.2 | 0.00 | 0.23 | 0.23 | 93 | 1009.8 |
| 20260506223046 | 60 | 197 | 0.0 | 3.5 | 0.00 | 0.23 | 0.23 | 93 | 1009.6 |
| 20260506221553 | 59 | 193 | 0.0 | 2.6 | 0.00 | 0.23 | 0.23 | 93 | 1009.6 |
| 20260506220044 | 59 | 165 | 0.0 | 5.2 | 0.00 | 0.23 | 0.23 | 93 | 1009.4 |
| 20260506214543 | 60 | 134 | 0.0 | 3.5 | 0.00 | 0.23 | 0.23 | 93 | 1009.1 |
| 20260506213042 | 59 | 209 | 0.9 | 5.2 | 0.00 | 0.23 | 0.23 | 92 | 1009.2 |
| 20260506211542 | 59 | 285 | 1.7 | 7.8 | 0.00 | 0.23 | 0.23 | 92 | 1009.1 |
| 20260506210044 | 59 | 254 | 3.5 | 9.6 | 0.00 | 0.23 | 0.23 | 92 | 1009.0 |
| 20260506204540 | 59 | 290 | 1.7 | 8.7 | 0.00 | 0.23 | 0.23 | 92 | 1008.8 |
| 20260506203039 | 59 | 265 | 1.7 | 10.4 | 0.01 | 0.23 | 0.23 | 93 | 1008.7 |
| 20260506201540 | 59 | 163 | 0.9 | 6.1 | 0.01 | 0.23 | 0.23 | 93 | 1008.8 |
| 20260506200044 | 59 | 162 | 0.9 | 8.7 | 0.03 | 0.23 | 0.23 | 93 | 1008.8 |
| 20260506194544 | 59 | 198 | 2.6 | 7.8 | 0.04 | 0.23 | 0.23 | 93 | 1008.9 |
| 20260506193033 | 59 | 207 | 0.9 | 6.1 | 0.05 | 0.22 | 0.22 | 93 | 1009.2 |
| 20260506191532 | 59 | 150 | 2.6 | 6.1 | 0.06 | 0.22 | 0.22 | 94 | 1009.5 |
| 20260506190032 | 59 | 209 | 2.6 | 7.0 | 0.06 | 0.20 | 0.20 | 93 | 1009.5 |
| 20260506184529 | 59 | 183 | 2.6 | 8.7 | 0.06 | 0.19 | 0.19 | 93 | 1009.6 |
| 20260506183034 | 59 | 174 | 1.7 | 7.0 | 0.04 | 0.17 | 0.17 | 93 | 1009.6 |
| 20260506181528 | 59 | 212 | 5.2 | 7.8 | 0.02 | 0.15 | 0.15 | 92 | 1009.6 |
| 20260506180027 | 59 | 212 | 2.6 | 9.6 | 0.01 | 0.14 | 0.14 | 92 | 1009.8 |
| 20260506174527 | 59 | 184 | 6.1 | 12.2 | 0.01 | 0.13 | 0.13 | 91 | 1009.9 |
| 20260506173025 | 59 | 152 | 3.5 | 11.3 | 0.02 | 0.13 | 0.13 | 92 | 1009.8 |
| 20260506171524 | 59 | 213 | 4.3 | 10.4 | 0.04 | 0.13 | 0.13 | 92 | 1009.8 |
| 20260506170022 | 59 | 173 | 4.3 | 14.8 | 0.07 | 0.13 | 0.13 | 92 | 1009.9 |
| 20260506164519 | 59 | 174 | 4.3 | 10.4 | 0.08 | 0.12 | 0.12 | 92 | 1009.8 |
| 20260506163017 | 59 | 160 | 4.3 | 10.4 | 0.07 | 0.11 | 0.11 | 91 | 1010.1 |
| 20260506161513 | 60 | 200 | 2.6 | 8.7 | 0.08 | 0.09 | 0.09 | 91 | 1010.7 |
| 20260506160016 | 60 | 183 | 2.6 | 12.2 | 0.06 | 0.06 | 0.06 | 89 | 1010.9 |
| 20260506154508 | 61 | 179 | 4.3 | 7.8 | 0.04 | 0.04 | 0.04 | 87 | 1011.1 |
| 20260506153006 | 61 | 204 | 3.5 | 7.0 | 0.03 | 0.03 | 0.03 | 87 | 1011.0 |
| 20260506151507 | 61 | 172 | 3.5 | 8.7 | 0.01 | 0.01 | 0.01 | 83 | 1011.0 |
| 20260506150004 | 63 | 192 | 5.2 | 7.0 | 0.00 | 0.00 | 0.00 | 79 | 1011.2 |
| 20260506144502 | 63 | 205 | 4.3 | 11.3 | 0.00 | 0.00 | 0.00 | 77 | 1011.2 |
| 20260506143002 | 63 | 187 | 2.6 | 8.7 | 0.00 | 0.00 | 0.00 | 77 | 1011.3 |
| 20260506141501 | 63 | 186 | 4.3 | 9.6 | 0.00 | 0.00 | 0.00 | 77 | 1011.1 |
| 20260506140100 | 63 | 172 | 3.5 | 10.4 | 0.00 | 0.00 | 0.00 | 77 | 1011.1 |
| 20260506134558 | 63 | 155 | 4.3 | 11.3 | 0.00 | 0.00 | 0.00 | 77 | 1011.1 |
| 20260506133106 | 63 | 186 | 3.5 | 11.3 | 0.00 | 0.00 | 0.00 | 77 | 1011.4 |
| 20260506131557 | 63 | 181 | 4.3 | 9.6 | 0.00 | 0.00 | 0.00 | 77 | 1011.5 |
| 20260506130056 | 63 | 209 | 3.5 | 11.3 | 0.00 | 0.00 | 0.00 | 77 | 1011.4 |
| 20260506124555 | 63 | 241 | 3.5 | 7.8 | 0.00 | 0.00 | 0.00 | 77 | 1011.3 |
| 20260506123055 | 62 | 155 | 4.3 | 8.7 | 0.00 | 0.00 | 0.00 | 78 | 1011.1 |
| 20260506121607 | 62 | 198 | 3.5 | 10.4 | 0.00 | 0.00 | 0.00 | 79 | 1011.3 |
| 20260506120118 | 62 | 180 | 4.3 | 11.3 | 0.00 | 0.00 | 0.00 | 80 | 1011.4 |
| 20260506114552 | 62 | 217 | 5.2 | 13.9 | 0.00 | 0.00 | 0.00 | 80 | 1011.5 |
| 20260506113054 | 61 | 168 | 3.5 | 8.7 | 0.00 | 0.00 | 0.00 | 80 | 1011.4 |
| 20260506111552 | 61 | 211 | 4.3 | 8.7 | 0.00 | 0.00 | 0.00 | 81 | 1011.3 |
| 20260506110054 | 61 | 179 | 6.1 | 12.2 | 0.00 | 0.00 | 0.00 | 81 | 1011.2 |
| 20260506104549 | 61 | 177 | 4.3 | 9.6 | 0.00 | 0.00 | 0.00 | 82 | 1011.1 |
| 20260506103052 | 61 | 167 | 5.2 | 11.3 | 0.00 | 0.00 | 0.00 | 82 | 1011.0 |
| 20260506101549 | 61 | 180 | 3.5 | 8.7 | 0.00 | 0.00 | 0.00 | 82 | 1011.2 |
| 20260506100045 | 61 | 166 | 5.2 | 10.4 | 0.00 | 0.00 | 0.00 | 82 | 1011.0 |
| 20260506094547 | 61 | 214 | 3.5 | 13.0 | 0.00 | 0.00 | 0.00 | 82 | 1011.0 |
| 20260506093048 | 61 | 160 | 5.2 | 10.4 | 0.00 | 0.00 | 0.00 | 82 | 1010.9 |
| 20260506091541 | 61 | 203 | 3.5 | 9.6 | 0.00 | 0.00 | 0.00 | 82 | 1011.1 |
| 20260506090037 | 61 | 199 | 4.3 | 9.6 | 0.00 | 0.00 | 0.00 | 81 | 1011.1 |
| 20260506084535 | 61 | 174 | 4.3 | 8.7 | 0.00 | 0.00 | 0.00 | 80 | 1011.2 |
| 20260506083036 | 61 | 159 | 4.3 | 10.4 | 0.00 | 0.00 | 0.00 | 79 | 1011.2 |
| 20260506081529 | 61 | 153 | 5.2 | 8.7 | 0.00 | 0.00 | 0.00 | 78 | 1011.4 |
| 20260506080128 | 62 | 213 | 5.2 | 10.4 | 0.00 | 0.00 | 0.00 | 76 | 1011.4 |
| 20260506073022 | 63 | 184 | 3.5 | 7.8 | 0.00 | 0.00 | 0.00 | 73 | 1011.5 |
| 20260506071522 | 63 | 193 | 3.5 | 12.2 | 0.00 | 0.00 | 0.00 | 72 | 1011.5 |
| 20260506061516 | 64 | 185 | 5.2 | 13.9 | 0.00 | 0.00 | 0.00 | 69 | 1012.0 |
| 20260506044604 | 65 | 216 | 3.5 | 9.6 | 0.00 | 0.00 | 0.00 | 66 | 1012.6 |
| 20260506043057 | 65 | 158 | 4.3 | 8.7 | 0.00 | 0.00 | 0.00 | 65 | 1012.4 |
| 20260506041557 | 65 | 150 | 5.2 | 11.3 | 0.00 | 0.00 | 0.00 | 64 | 1012.5 |
| 20260506040053 | 66 | 206 | 4.3 | 14.8 | 0.00 | 0.00 | 0.00 | 64 | 1012.5 |
| 20260506034552 | 66 | 185 | 5.2 | 12.2 | 0.00 | 0.00 | 0.00 | 64 | 1012.4 |
| 20260506033051 | 66 | 148 | 7.8 | 13.0 | 0.00 | 0.00 | 0.00 | 63 | 1012.4 |
| 20260506031559 | 67 | 168 | 5.2 | 10.4 | 0.00 | 0.00 | 0.00 | 62 | 1012.4 |
| 20260506030108 | 67 | 202 | 5.2 | 12.2 | 0.00 | 0.00 | 0.00 | 60 | 1012.4 |
| 20260506024548 | 68 | 146 | 6.1 | 12.2 | 0.00 | 0.00 | 0.00 | 57 | 1012.4 |
| 20260506023048 | 69 | 172 | 6.1 | 10.4 | 0.00 | 0.00 | 0.00 | 53 | 1012.3 |
| 20260506021549 | 69 | 159 | 6.1 | 14.8 | 0.00 | 0.00 | 0.00 | 52 | 1012.2 |
| 20260506020047 | 70 | 200 | 6.1 | 15.6 | 0.00 | 0.00 | 0.00 | 50 | 1012.2 |
| 20260506014548 | 70 | 169 | 6.1 | 11.3 | 0.00 | 0.00 | 0.00 | 50 | 1012.1 |
| 20260506013047 | 71 | 189 | 5.2 | 10.4 | 0.00 | 0.00 | 0.00 | 49 | 1011.9 |
| 20260506011553 | 71 | 170 | 4.3 | 12.2 | 0.00 | 0.00 | 0.00 | 48 | 1011.9 |
| 20260506010045 | 72 | 151 | 5.2 | 9.6 | 0.00 | 0.00 | 0.00 | 47 | 1011.6 |
| 20260506004620 | 72 | 210 | 4.3 | 11.3 | 0.00 | 0.00 | 0.00 | 44 | 1011.6 |
| 20260506003043 | 73 | 176 | 3.5 | 10.4 | 0.00 | 0.00 | 0.00 | 43 | 1011.5 |
| 20260506001543 | 73 | 167 | 3.5 | 7.8 | 0.00 | 0.00 | 0.00 | 41 | 1011.3 |
| 20260506000045 | 74 | 157 | 1.7 | 9.6 | 0.00 | 0.00 | 0.00 | 41 | 1011.2 |
| 20260505234606 | 74 | 146 | 4.3 | 13.0 | 0.00 | 0.00 | 0.00 | 40 | 1011.1 |
| 20260505233040 | 74 | 152 | 5.2 | 10.4 | 0.00 | 0.00 | 0.00 | 39 | 1011.2 |